Temperature
6 5 5 5 5 4 4 4 4 4 4 4 4 4 5 5 5 5 5 5 5 5 5 5 5 5 6 6 6 6 6 6 6 6 6 7 7 7 7 7 7 7 7
5 5 5 4 4 4 4 4 4 4 4 4 4 4 4 4 4 4 4 4 4 4 4 4 4 5 5 5 5 5 5 5 5 6 6 6 6 6 6 7 7 7 7
5 5 4 4 4 3 3 3 3 3 3 3 3 3 3 3 4 4 4 4 4 4 4 4 4 4 4 4 4 5 5 5 5 5 5 5 5 5 5 6 6 6 6
4 4 4 3 3 3 3 3 3 3 3 3 3 3 3 3 3 3 3 3 3 3 3 3 3 3 4 4 4 4 4 4 4 4 4 4 4 4 4 5 5 5 5
4 4 3 3 3 3 3 3 3 3 3 2 2 2 2 2 2 2 3 3 3 3 3 3 3 3 3 3 3 3 3 3 3 3 3 4 4 3 3 3 4 4 5
4 3 3 3 3 3 3 2 2 2 2 2 2 2 2 2 2 2 2 2 2 2 2 2 2 2 2 2 3 3 3 3 3 3 3 3 3 2 2 2 2 2 3
3 3 3 3 2 2 2 2 2 2 2 2 2 2 2 2 2 2 2 2 2 2 2 2 2 2 2 2 2 2 2 2 2 2 2 2 2 2 1 1 1 1 1
3 3 3 2 2 2 2 2 2 2 1 1 1 1 1 1 1 1 1 1 1 1 1 1 1 1 1 1 1 2 2 2 2 1 1 1 1 1 1 1 0 1 1
3 3 2 2 2 2 2 2 1 1 1 1 1 1 1 1 1 1 1 1 1 1 1 1 1 1 1 1 1 1 1 1 1 1 1 1 1 1 0 0 -0 -0 -0
3 2 2 2 2 2 1 1 1 1 1 1 1 1 1 1 0 0 0 0 0 0 0 1 1 1 1 1 0 1 1 1 1 0 0 0 0 0 -0 -0 -1 -1 -1
2 2 2 2 1 1 1 1 1 1 0 1 1 1 0 0 0 0 0 0 0 -0 -0 0 0 0 0 0 -0 0 0 -0 -0 -0 -0 -0 -0 -0 -1 -1 -1 -2 -2
2 2 2 1 1 1 1 1 0 0 0 0 0 0 0 -0 -0 -0 -0 -0 -0 -0 -0 -0 -0 -0 -0 -0 -1 -1 -1 -1 -1 -1 -1 -1 -1 -1 -1 -2 -2 -2 -2
2 2 1 1 1 1 0 0 -0 -0 -0 -0 -0 -0 -0 -0 -1 -1 -1 -1 -1 -1 -1 -1 -1 -1 -1 -1 -1 -1 -1 -1 -1 -1 -2 -2 -2 -2 -2 -2 -2 -2 -2
2 1 1 1 1 1 0 -0 -0 -0 -0 -0 -1 -1 -1 -1 -1 -1 -1 -1 -1 -1 -1 -2 -2 -2 -2 -2 -2 -2 -2 -2 -2 -2 -2 -2 -2 -3 -3 -3 -3 -3 -3
1 1 1 1 0 0 0 -0 -0 -0 -1 -1 -1 -1 -1 -1 -1 -1 -1 -1 -2 -2 -2 -2 -2 -2 -2 -2 -2 -2 -3 -3 -3 -3 -3 -3 -3 -3 -3 -3 -3 -4 -4
1 1 1 0 0 0 -0 -0 -0 -1 -1 -1 -1 -1 -1 -1 -2 -2 -2 -2 -2 -2 -3 -3 -3 -3 -3 -3 -3 -3 -3 -3 -4 -4 -4 -4 -4 -4 -4 -4 -4 -4 -5
1 1 0 0 0 -0 -0 -0 -0 -0 -1 -1 -1 -1 -1 -1 -2 -2 -2 -2 -3 -3 -3 -3 -3 -3 -4 -4 -4 -4 -4 -4 -4 -5 -5 -5 -5 -5 -5 -5 -5 -5 -5
1 0 0 -0 -0 -0 -1 -1 -1 -1 -1 -1 -1 -1 -2 -2 -2 -2 -3 -3 -3 -3 -3 -4 -4 -4 -4 -4 -5 -5 -5 -5 -5 -5 -5 -5 -5 -6 -6 -6 -6 -6 -6
0 0 -0 -0 -1 -1 -1 -1 -1 -1 -1 -1 -2 -2 -2 -2 -2 -3 -3 -3 -3 -4 -4 -4 -4 -5 -5 -5 -5 -5 -6 -6 -6 -6 -6 -6 -6 -6 -6 -6 -6 -6 -7
0 0 -0 -1 -1 -1 -1 -1 -2 -2 -2 -2 -2 -2 -2 -3 -3 -3 -3 -4 -4 -4 -4 -5 -5 -5 -5 -5 -6 -6 -6 -6 -6 -6 -7 -7 -7 -7 -7 -7 -7 -7 -7
-0 -0 -1 -1 -1 -1 -1 -2 -2 -2 -2 -2 -2 -3 -3 -3 -3 -3 -4 -4 -4 -4 -5 -5 -5 -5 -6 -6 -6 -6 -6 -7 -7 -7 -7 -7 -7 -7 -7 -8 -8 -8 -8
-1 -1 -1 -1 -2 -2 -2 -2 -2 -2 -3 -3 -3 -3 -3 -3 -4 -4 -4 -4 -4 -5 -5 -5 -6 -6 -6 -6 -6 -7 -7 -7 -7 -7 -7 -7 -8 -8 -8 -8 -8 -8 -8
-1 -1 -2 -2 -2 -2 -2 -3 -3 -3 -3 -3 -3 -3 -4 -4 -4 -4 -4 -5 -5 -5 -5 -6 -6 -6 -6 -6 -7 -7 -7 -7 -7 -8 -8 -8 -8 -8 -8 -8 -8 -8 -8
-2 -2 -2 -2 -3 -3 -3 -3 -3 -3 -3 -4 -4 -4 -4 -4 -5 -5 -5 -5 -5 -5 -6 -6 -6 -6 -6 -7 -7 -7 -7 -8 -8 -8 -8 -8 -8 -8 -8 -8 -8 -8 -9
-2 -2 -3 -3 -3 -3 -3 -4 -4 -4 -4 -4 -4 -4 -4 -5 -5 -5 -5 -5 -6 -6 -6 -6 -6 -6 -7 -7 -7 -7 -7 -8 -8 -8 -8 -8 -8 -8 -9 -9 -9 -9 -9
-3 -3 -3 -3 -4 -4 -4 -4 -4 -4 -4 -4 -4 -5 -5 -5 -5 -5 -6 -6 -6 -6 -6 -6 -7 -7 -7 -7 -7 -7 -8 -8 -8 -8 -9 -9 -9 -9 -9 -9 -9 -9 -9
Wind_Speed
1 2 2 3 3 3 3 4 4 5 5 4 4 4 4 4 4 4 4 4 4 3 4 4 4 4 3 3 3 3 4 4 6 4 2 2 3 3 3 4 5 5 6
1 1 2 3 3 3 4 4 4 5 4 4 4 4 4 4 4 4 4 4 3 3 4 4 4 3 4 3 3 4 4 4 5 5 3 2 3 3 3 3 3 5 5
1 2 2 3 3 3 4 4 5 5 4 4 4 4 4 4 4 4 4 3 3 3 3 4 4 3 4 3 3 3 3 4 4 4 4 2 2 2 3 3 3 3 5
2 2 3 3 3 3 4 4 5 4 4 4 4 4 4 4 3 3 3 3 3 3 3 3 3 3 3 4 3 4 3 4 4 4 3 3 2 3 2 3 4 3 5
3 3 3 3 3 3 4 4 4 3 3 3 4 4 3 3 3 3 3 3 2 3 3 3 3 3 4 4 3 3 3 3 3 4 4 3 3 2 3 2 4 5 5
3 3 3 2 3 3 4 4 3 3 3 3 3 3 3 3 4 4 3 3 3 3 3 3 3 3 4 5 5 4 4 4 4 4 4 4 4 4 3 4 4 4 4
3 3 3 3 3 3 3 3 3 3 3 3 3 3 3 3 4 4 4 2 3 3 3 3 3 3 3 3 4 5 5 5 5 5 5 5 5 5 4 5 5 6 6
4 3 3 3 3 3 3 4 3 3 3 3 3 3 2 3 4 4 3 2 2 2 2 3 3 3 3 3 3 3 3 4 4 4 4 4 4 4 5 5 6 6 6
4 4 4 3 3 3 3 4 3 2 3 3 2 2 3 3 3 3 3 1 1 2 2 2 2 2 4 4 3 3 4 3 3 4 5 5 6 6 5 3 3 4 5
5 5 4 3 3 3 4 3 2 2 3 2 2 2 2 2 2 3 3 1 1 2 2 2 3 3 5 5 3 3 4 4 3 3 3 3 3 4 5 3 3 4 5
4 3 3 3 4 3 3 2 2 2 2 2 2 3 2 1 2 2 2 1 2 2 2 2 2 4 5 5 4 3 4 3 2 2 2 2 2 2 3 3 3 4 5
3 4 4 4 3 3 3 3 2 2 2 2 2 2 2 1 1 2 3 3 3 2 2 2 2 3 5 5 4 4 4 3 1 1 2 2 2 3 3 4 5 5 6
4 4 4 4 3 3 3 3 2 2 2 2 2 2 2 1 2 3 4 4 4 2 2 2 3 4 4 3 3 4 3 1 1 1 2 3 2 3 3 4 4 4 5
5 4 4 4 3 3 3 3 2 3 3 3 3 3 2 1 1 1 2 2 3 3 2 2 3 4 3 3 3 3 2 1 2 2 2 3 2 3 3 3 4 4 4
5 4 4 4 4 3 3 3 4 4 4 4 3 3 2 2 3 3 1 1 1 2 1 1 1 2 1 2 2 2 2 2 2 2 3 3 3 3 4 3 3 4 4
5 4 4 3 3 3 3 3 4 4 4 5 4 3 3 3 3 4 4 3 3 3 1 1 1 1 2 2 2 2 2 2 2 3 3 3 3 4 4 4 4 4 5
5 5 4 4 4 3 3 3 3 3 5 6 6 5 5 4 4 4 3 4 3 3 1 1 2 2 1 1 1 2 2 2 2 2 3 3 3 4 4 4 4 4 5
5 5 4 4 4 4 4 3 3 3 2 3 5 7 7 6 5 4 4 3 2 2 1 2 2 2 1 1 1 2 2 2 2 2 3 3 3 3 4 4 4 5 6
5 4 4 4 3 4 3 3 3 3 3 3 2 3 6 5 5 5 3 2 2 2 2 2 2 2 2 2 2 2 2 2 2 2 3 3 3 3 4 4 5 7 7
5 7 5 4 4 3 3 4 4 4 4 3 3 3 2 2 2 3 3 2 2 3 2 2 2 2 2 2 2 2 2 2 3 3 3 3 3 3 4 5 5 5 6
4 5 6 4 4 4 4 4 4 4 4 4 4 4 4 3 3 3 3 3 3 3 2 2 2 2 2 2 2 2 3 3 3 3 3 3 3 4 4 5 5 6 6
4 4 4 4 4 4 4 4 4 4 4 4 3 3 6 3 3 3 3 3 3 2 2 2 2 2 2 2 2 3 3 3 3 3 3 3 4 4 5 5 6 6 6
4 4 4 4 4 6 5 4 4 4 4 4 4 3 3 3 3 3 3 3 2 2 2 2 2 2 2 3 3 3 3 4 3 4 4 4 4 4 5 6 7 7 7
4 5 5 4 4 4 5 5 4 5 5 4 4 4 4 4 4 4 3 3 2 2 2 2 3 4 4 3 3 4 4 5 5 4 5 5 5 5 5 6 7 7 7
4 5 5 5 5 5 5 5 5 5 5 5 4 4 4 4 4 3 3 3 3 3 3 3 3 4 5 5 5 5 6 7 7 6 5 4 5 6 6 7 7 7 8
4 5 5 5 5 5 5 5 5 5 5 5 4 4 4 4 4 4 3 3 3 3 3 3 4 5 5 5 6 7 8 8 8 8 6 4 5 6 6 6 7 7 8
Wind_Direction
269 295 309 307 305 312 315 311 308 308 308 306 301 297 297 301 301 292 284 282 271 271 272 262 259 260 259 260 255 254 253 254 261 269 268 281 287 284 294 286 277 271 269
241 274 287 295 303 309 308 309 312 311 306 298 297 293 292 294 294 293 293 287 281 277 277 274 265 263 262 260 256 254 256 255 256 263 264 265 280 277 276 283 301 298 290
216 252 273 283 290 296 302 307 311 308 306 308 306 301 299 295 290 290 287 281 282 286 288 285 282 269 272 272 267 263 260 265 263 260 268 267 283 299 302 313 308 299 304
219 244 261 271 281 293 302 305 308 304 307 310 306 303 299 297 297 294 285 280 284 290 293 294 294 286 274 269 265 258 256 256 259 258 263 273 279 286 290 297 305 301 299
220 239 255 265 277 293 296 298 302 301 305 306 308 308 305 293 293 285 280 279 279 290 298 296 299 306 305 293 274 264 257 253 256 255 263 276 278 284 281 290 295 304 300
220 237 253 263 276 282 289 299 295 293 297 300 305 311 315 316 309 296 282 280 276 274 278 288 294 300 310 309 308 304 285 262 255 256 261 261 272 277 283 289 293 304 294
220 235 243 252 265 272 287 299 283 280 289 297 301 305 307 313 318 313 287 278 273 267 268 278 287 296 301 295 301 306 306 294 272 258 258 265 273 277 277 277 277 281 283
222 235 241 250 262 271 280 286 276 279 276 284 292 297 305 306 315 319 303 278 278 277 274 272 275 290 295 289 299 297 285 286 277 263 250 259 268 268 258 268 276 285 289
225 233 236 241 254 264 271 274 265 270 275 277 283 292 298 302 311 321 319 297 282 283 282 286 284 282 294 297 293 288 289 296 312 293 279 281 287 295 294 284 286 292 293
225 228 231 231 238 250 260 262 254 258 261 267 278 280 280 290 305 318 317 325 302 293 287 285 288 291 301 300 279 274 278 284 297 304 305 306 305 312 310 279 266 274 288
216 213 222 227 233 244 253 258 247 243 253 257 266 273 266 268 303 318 321 322 297 296 293 291 287 302 305 305 300 282 273 284 286 282 293 304 311 312 311 308 290 266 269
202 209 219 223 229 236 240 247 232 218 234 253 259 271 267 258 273 292 298 296 302 303 289 286 299 318 316 313 306 298 306 304 273 270 285 291 298 307 308 302 296 287 274
202 212 220 219 221 221 225 238 239 220 222 243 247 255 277 274 265 269 281 287 292 291 286 303 322 331 330 325 312 316 325 299 255 264 277 281 284 287 295 297 302 301 295
209 216 214 214 225 224 226 229 229 224 223 230 237 244 256 263 254 268 282 292 293 292 299 311 323 329 331 329 336 346 355 319 291 273 280 283 293 295 293 294 299 307 306
212 217 217 216 219 223 225 232 231 231 224 221 226 225 230 249 257 260 265 274 285 274 304 329 341 341 335 330 338 346 350 344 328 307 289 287 295 297 296 295 295 301 296
214 217 213 212 215 218 221 248 251 240 248 240 235 232 240 247 272 267 262 266 277 288 295 303 298 297 299 308 317 329 332 325 319 314 310 301 295 296 301 304 300 294 292
213 216 212 211 213 214 216 223 252 261 254 253 249 251 250 256 266 269 268 266 272 278 270 274 277 280 293 308 311 312 313 312 315 312 307 303 301 300 302 304 304 301 296
212 215 213 212 212 212 216 221 227 237 250 260 252 249 253 256 260 264 265 268 275 268 256 257 269 277 282 289 299 305 307 310 311 307 304 303 303 302 304 305 304 302 302
209 211 212 211 210 211 213 216 221 232 241 250 252 251 246 248 253 260 254 244 250 256 254 255 258 261 268 275 282 284 286 292 296 295 295 297 299 301 300 300 302 307 308
214 219 212 206 208 210 210 214 220 226 233 237 241 240 222 212 232 249 241 238 244 251 249 252 256 256 262 265 270 277 281 282 285 285 289 292 296 297 295 297 299 303 302
212 216 213 209 210 211 212 215 219 223 230 236 241 235 212 208 225 234 234 236 239 243 247 251 260 259 258 257 259 266 273 279 279 280 285 291 294 295 295 295 297 297 298
208 208 207 211 213 213 217 216 218 222 228 235 245 248 238 226 226 235 240 244 241 238 235 238 250 251 246 245 249 258 264 270 272 273 281 289 292 293 294 295 297 298 301
208 209 212 215 214 223 227 219 218 223 228 229 230 232 233 230 232 237 241 244 241 239 240 237 242 251 253 251 246 242 250 257 263 268 274 279 282 286 290 293 294 297 299
204 207 212 215 214 215 218 221 220 224 227 228 228 229 228 229 232 236 236 237 236 236 237 239 239 239 246 255 256 253 251 253 254 258 263 266 272 281 285 288 290 291 294
205 207 210 213 215 217 219 221 221 222 225 228 230 232 232 231 233 234 232 229 227 232 236 241 245 243 243 249 255 256 260 266 266 260 259 263 267 271 278 283 286 290 291
212 213 215 215 216 216 217 221 224 223 225 228 228 230 230 231 233 232 227 224 228 232 235 242 244 246 251 255 256 261 266 270 273 275 268 263 266 273 278 281 284 286 288
Height
1471 1469 1468 1466 1464 1463 1461 1459 1457 1456 1455 1453 1452 1451 1450 1450 1449 1449 1448 1449 1448 1449 1449 1450 1450 1451 1452 1452 1453 1454 1455 1455 1454 1453 1455 1456 1457 1457 1457 1457 1458 1458 1459
1467 1466 1464 1463 1461 1459 1457 1456 1454 1452 1451 1450 1448 1447 1446 1446 1445 1445 1444 1444 1444 1444 1445 1445 1445 1446 1447 1447 1448 1449 1449 1450 1450 1448 1449 1450 1451 1451 1451 1451 1451 1452 1452
1464 1462 1461 1459 1457 1455 1454 1452 1450 1448 1447 1446 1445 1443 1442 1442 1441 1441 1441 1440 1440 1440 1441 1441 1441 1441 1442 1442 1443 1443 1444 1444 1444 1443 1443 1444 1444 1445 1445 1445 1445 1445 1446
1460 1459 1457 1456 1454 1452 1450 1448 1446 1445 1443 1442 1441 1440 1439 1438 1438 1437 1437 1437 1436 1437 1437 1437 1437 1437 1437 1437 1437 1438 1438 1439 1439 1438 1438 1438 1439 1440 1440 1439 1438 1439 1439
1456 1455 1454 1452 1451 1449 1447 1445 1443 1442 1440 1439 1438 1437 1436 1435 1434 1434 1434 1433 1433 1433 1433 1433 1433 1433 1433 1433 1433 1433 1433 1433 1433 1433 1433 1433 1433 1434 1434 1433 1433 1432 1432
1452 1451 1450 1449 1447 1445 1444 1442 1440 1439 1437 1436 1435 1434 1432 1431 1431 1430 1430 1430 1429 1429 1429 1429 1429 1429 1429 1429 1429 1429 1429 1429 1428 1429 1428 1428 1428 1429 1429 1429 1428 1427 1425
1448 1447 1446 1445 1443 1442 1440 1438 1437 1436 1434 1433 1432 1431 1429 1429 1428 1427 1426 1426 1426 1426 1426 1425 1425 1425 1425 1425 1424 1424 1424 1424 1425 1425 1423 1423 1423 1424 1424 1424 1423 1422 1420
1444 1443 1442 1441 1439 1438 1436 1435 1434 1433 1432 1430 1429 1428 1427 1426 1425 1424 1423 1423 1423 1423 1422 1422 1422 1421 1421 1421 1420 1420 1420 1420 1420 1420 1419 1419 1419 1419 1419 1419 1417 1416 1415
1440 1439 1438 1437 1436 1434 1432 1431 1430 1430 1429 1427 1426 1425 1424 1424 1423 1422 1421 1420 1419 1419 1419 1419 1418 1418 1418 1417 1417 1416 1415 1415 1415 1415 1415 1415 1414 1414 1414 1414 1412 1411 1408
1436 1435 1434 1433 1432 1430 1429 1428 1427 1427 1426 1425 1424 1423 1423 1422 1421 1420 1419 1418 1417 1416 1416 1415 1415 1415 1414 1414 1413 1412 1411 1411 1411 1410 1410 1410 1410 1409 1409 1409 1408 1406 1404
1431 1431 1430 1429 1428 1427 1426 1425 1424 1423 1423 1422 1421 1421 1420 1419 1418 1418 1417 1416 1415 1414 1413 1412 1412 1411 1411 1410 1409 1408 1407 1407 1407 1406 1405 1405 1405 1404 1404 1403 1403 1402 1400
1427 1426 1426 1425 1424 1423 1422 1421 1421 1420 1420 1419 1419 1418 1418 1417 1416 1415 1415 1413 1412 1411 1410 1410 1409 1409 1408 1407 1406 1405 1404 1404 1403 1402 1401 1401 1400 1400 1399 1398 1398 1397 1396
1423 1422 1422 1421 1420 1420 1419 1418 1418 1417 1417 1416 1416 1415 1415 1414 1413 1413 1412 1411 1410 1408 1407 1407 1406 1405 1405 1403 1403 1402 1401 1400 1399 1398 1397 1397 1397 1396 1394 1393 1392 1392 1391
1418 1418 1417 1417 1416 1416 1415 1415 1414 1414 1414 1413 1413 1412 1412 1411 1410 1410 1409 1408 1407 1405 1404 1404 1403 1402 1401 1401 1400 1398 1397 1397 1395 1394 1394 1393 1392 1391 1390 1389 1388 1386 1385
1414 1413 1413 1413 1412 1412 1412 1412 1411 1411 1411 1411 1410 1410 1409 1408 1408 1407 1406 1405 1404 1403 1402 1401 1400 1399 1398 1397 1396 1395 1394 1393 1392 1391 1390 1389 1388 1387 1386 1385 1384 1382 1380
1409 1409 1409 1409 1409 1408 1408 1408 1408 1408 1408 1407 1407 1407 1406 1406 1405 1404 1403 1402 1401 1400 1399 1397 1397 1396 1395 1394 1393 1392 1391 1390 1389 1388 1386 1385 1384 1383 1382 1381 1380 1378 1376
1405 1405 1405 1405 1405 1405 1405 1404 1404 1404 1404 1404 1403 1403 1403 1402 1402 1401 1400 1400 1399 1398 1396 1395 1394 1394 1393 1392 1391 1390 1389 1387 1386 1385 1383 1382 1381 1380 1378 1377 1376 1374 1372
1401 1401 1401 1401 1401 1401 1401 1401 1401 1400 1400 1400 1400 1400 1399 1399 1398 1398 1397 1396 1395 1394 1393 1392 1392 1391 1390 1389 1388 1387 1386 1384 1383 1382 1381 1379 1378 1377 1375 1374 1372 1370 1368
1397 1397 1397 1397 1397 1398 1398 1398 1397 1397 1397 1396 1396 1396 1396 1395 1395 1394 1393 1392 1391 1391 1390 1389 1389 1388 1387 1386 1385 1384 1383 1381 1380 1379 1377 1376 1375 1374 1372 1370 1368 1366 1364
1392 1392 1393 1393 1393 1393 1394 1394 1393 1393 1393 1392 1392 1392 1392 1391 1390 1390 1390 1389 1388 1387 1387 1386 1385 1385 1384 1383 1382 1381 1380 1378 1377 1376 1375 1373 1372 1370 1369 1367 1365 1363 1360
1387 1388 1388 1388 1388 1389 1389 1389 1389 1389 1389 1388 1388 1388 1388 1387 1387 1386 1386 1385 1385 1384 1383 1383 1382 1381 1380 1379 1378 1377 1376 1375 1374 1373 1372 1370 1369 1367 1366 1364 1362 1359 1357
1383 1383 1383 1383 1384 1384 1384 1385 1385 1385 1385 1384 1384 1384 1384 1383 1383 1383 1382 1382 1381 1381 1380 1379 1379 1378 1377 1376 1375 1374 1373 1372 1371 1370 1369 1367 1366 1364 1362 1360 1358 1356 1354
1378 1378 1378 1378 1379 1379 1380 1380 1380 1380 1380 1380 1380 1380 1379 1379 1379 1379 1378 1378 1378 1377 1376 1376 1375 1374 1373 1372 1371 1371 1369 1368 1368 1367 1365 1364 1362 1361 1359 1357 1355 1353 1351
1373 1373 1373 1373 1374 1374 1375 1375 1375 1375 1375 1375 1375 1375 1375 1375 1375 1374 1374 1374 1373 1373 1372 1372 1371 1370 1369 1369 1368 1367 1366 1365 1364 1363 1362 1361 1359 1357 1356 1354 1352 1350 1348
1368 1368 1368 1368 1369 1369 1369 1370 1370 1370 1370 1370 1370 1370 1370 1370 1370 1370 1370 1369 1369 1368 1368 1368 1367 1366 1365 1365 1364 1363 1362 1361 1360 1359 1358 1357 1356 1354 1353 1351 1349 1347 1344
1363 1363 1363 1363 1363 1364 1364 1365 1365 1365 1365 1366 1366 1366 1365 1365 1365 1365 1365 1365 1364 1364 1364 1363 1363 1362 1361 1361 1360 1359 1358 1357 1356 1355 1355 1353 1352 1351 1349 1347 1345 1343 1341